Zurück zum Katalog

FENGYUN 1C DEB

AktivSSO
NORAD 30304·DEBRIS·🇨🇳 China

Gestartet May 10, 1999 von Taiyuan Satellite Launch Center

Loading…

Nächste Überflüge (nächste 24 Stunden)

TLE

AktuellSource: Space-Track

Epoche: Sep 14, 2026, 04:05 UTC

1 30304U 99025ZR  26257.17039094  .00001205  00000-0  61063-3 0  9997
2 30304  99.0179 338.2277 0071393 347.0322  12.9014 14.16697770  7117

Verfolge FENGYUN 1C DEB in Echtzeit mit AllMySat

Download on the App Store